This is the latest recevied weather packets stored in our database for station/object PA3DZX-13. If no packets are shown the sender has not sent any weather packets the latest 1 day(s).
| Time | Temp. | Humidity | Pressure | Rain* | Wind** | Luminosity | Snow |
|---|---|---|---|---|---|---|---|
| 1777986573 | 10° C | 92% | 1010.9 hPa | 0 mm | 3.58 m/s, 10° | - | - |
| 1777985672 | 10° C | 92% | 1010.9 hPa | 0 mm | 3.58 m/s, 10° | - | - |
| 1777984772 | 10° C | 91% | 1011 hPa | 0 mm | 3.58 m/s, 19° | - | - |
| 1777983872 | 10° C | 93% | 1011 hPa | 0 mm | 2.68 m/s, 28° | - | - |
| 1777982971 | 10° C | 93% | 1011.1 hPa | 0 mm | 3.58 m/s, 39° | - | - |
| 1777982070 | 8.89° C | 94% | 1011.2 hPa | 0 mm | 4.92 m/s, 32° | - | - |
| 1777981169 | 8.89° C | 95% | 1011.2 hPa | 0 mm | 4.92 m/s, 31° | - | - |
| 1777980269 | 8.89° C | 91% | 1011.4 hPa | 0 mm | 3.58 m/s, 41° | - | - |
| 1777979369 | 8.89° C | 92% | 1011.4 hPa | 0 mm | 4.92 m/s, 29° | - | - |
| 1777978469 | 8.89° C | 93% | 1011.5 hPa | 0 mm | 4.92 m/s, 25° | - | - |
| 1777977568 | 8.89° C | 92% | 1011.6 hPa | 0 mm | 4.92 m/s, 32° | - | - |
| 1777976667 | 8.89° C | 93% | 1011.6 hPa | 0 mm | 4.92 m/s, 23° | - | - |
| 1777975767 | 8.89° C | 94% | 1011.6 hPa | 0 mm | 3.58 m/s, 22° | - | - |
| 1777974867 | 8.89° C | 93% | 1011.6 hPa | 0 mm | 4.92 m/s, 38° | - | - |
| 1777973966 | 8.89° C | 92% | 1011.7 hPa | 0 mm | 4.92 m/s, 30° | - | - |
| 1777973066 | 7.78° C | 93% | 1011.5 hPa | 0 mm | 4.92 m/s, 28° | - | - |
| 1777972165 | 7.78° C | 93% | 1011.6 hPa | 0 mm | 4.92 m/s, 25° | - | - |
| 1777971265 | 7.78° C | 95% | 1011.7 hPa | 0 mm | 3.58 m/s, 18° | - | - |
| 1777970364 | 7.78° C | 95% | 1011.8 hPa | 0 mm | 4.92 m/s, 24° | - | - |
| 1777969463 | 7.78° C | 94% | 1011.9 hPa | 0 mm | 3.58 m/s, 21° | - | - |
| 1777968563 | 7.78° C | 95% | 1011.7 hPa | 0 mm | 3.58 m/s, 19° | - | - |
| 1777967662 | 7.78° C | 95% | 1011.8 hPa | 0 mm | 4.92 m/s, 18° | - | - |
| 1777966762 | 7.78° C | 96% | 1011.9 hPa | 0 mm | 3.58 m/s, 21° | - | - |
| 1777965861 | 7.78° C | 96% | 1011.9 hPa | 0 mm | 3.58 m/s, 22° | - | - |
| 1777964961 | 7.78° C | 96% | 1011.9 hPa | 0 mm | 3.58 m/s, 22° | - | - |
* Rain latest hour (hover to see other rain measurements)
** Current wind speed in m/s (hover to see current wind gust speed)